LEMUR-2-ZO (43886 NORAD) Tracking and Keplerian Element Data

This shows tracking and keplerian element data for the satellite.

Feedback or suggestion? Click here.




ElementValue
Catalog43886
NameLEMUR-2-ZO
Epoch Orbit245
Epoch Day25.89999731
Epoch Year2019
RAAN295.9653
Inclination97.7297
Eccentricity0.0012473
Argument of Perigee137.2616
Mean Anonmoly222.9577
Mean Motion14.96554288
Decay Rate9.04E-06
L11 43886U 18111L 19025.89999731 .00000904 00000-0 84478-4 0 9991
L22 43886 97.7297 295.9653 0012473 137.2616 222.9577 14.96554288 2451

Live tracking and technical data element details for LEMUR-2-ZO (NORAD 43886). LEMUR-2-ZO can be tracked NOW for your location showing map with azimuth and elevation plus other details from your city location.

Track the satellite on the map from your city or location and see movement details for azimuth, elevation, latitude, longitude, range, height, and movement on the map or in text.







IsCatalogInMostPopularTable: catalog: 43886, numindb: 43
Update: records affected: 1



GetName: 43886 LEMUR-2-ZO

Hit Count: updated at: Fri, 19 Jul 2019 23:00:42 GMT